Regional Weather Roundup
Issued by NWS Bismarck, ND

Home | Current Version | Previous Version | Text Only | Print | Product List | Glossary On
Versions: 1 2 3 4 5 6 7 8 9 10 11 12 13 14 15 16 17 18 19 20 21 22 23 24 25 26 27 28 29 30 31 32 33 34 35 36 37 38 39 40 41 42 43 44 45 46 47 48 49 50
000
ASUS43 KBIS 310110
RWRBIS

NWR BROADCAST TEXT
NATIONAL WEATHER SERVICE BISMARCK ND
800 PM CDT SUN AUG 30 2015

NOTE: "FAIR" INDICATES FEW OR NO CLOUDS BELOW 12,000 FEET WITH NO
SIGNIFICANT WEATHER AND/OR OBSTRUCTIONS TO VISIBILITY.


CITY           SKY/WX    TMP DP  RH WIND       PRES   REMARKS
WILLISTON      PTCLDY    77  47  34 NE3       29.71S
MINOT          MOCLDY    79  58  48 W7        29.66R HAZE
MINOT AFB      MOCLDY    82  56  40 NW9       29.65R
BISMARCK       PTCLDY    88  65  46 NE3       29.62F HX  90
DICKINSON      MOCLDY    78  52  40 N6        29.72  HAZE
GARRISON         N/A     77  58  51 N8        29.67S
HETTINGER ARPT PTCLDY    80  52  37 N7        29.72F
JAMESTOWN      PTCLDY    78  68  71 S10       29.67F
CROSBY         FAIR      72  48  43 SE5       29.70S
HARVEY         FAIR      82  59  44 W8        29.64S
HAZEN          FAIR      81  57  44 N7        29.67F HAZE
LINTON         FAIR      84  66  54 SE12      29.64F
OAKES            N/A     77  75  94 SE14      29.71F
RUGBY          FAIR      77  63  61 W10       29.63S HAZE
STANLEY        FAIR      75  50  41 N7        29.73S
$$

CITY           SKY/WX    TMP DP  RH WIND       PRES   REMARKS
GRAND FORKS    CLOUDY    81  69  67 S16G23    29.65S
GRAND FORKS AF MOCLDY    81  70  70 S14       29.66S
DEVILS LAKE    PTCLDY    81  66  61 S14       29.62S
FARGO          MOCLDY    81  68  64 SE15G26   29.71S
CAVALIER       FAIR      82  68  61 S9        29.61F
GRAFTON        FAIR      79  72  78 S12       29.65R
GWINNER        FAIR      79  68  69 S10       29.73S
LANGDON        FAIR      82  66  57 S18G25    29.64S
ROLLA            N/A     77  61  57 W9        29.64R
WALHALLA       FAIR      82  68  61 MISG      29.60S
$$

CITY           SKY/WX    TMP DP  RH WIND       PRES   REMARKS
ABERDEEN       PTCLDY    77  69  76 S17G25    29.72F
MOBRIDGE       CLEAR     82  63  52 SE12      29.63S HAZE
BUFFALO          N/A     80  54  40 N9        29.69S
RAPID CITY     MOCLDY    81  59  47 NW5       29.75R
GLASGOW        MOCLDY    78  48  34 N3        29.69R
SIDNEY         PTCLDY    79  46  31 NE6       29.69F
WOLF POINT     MOCLDY    82  52  35 CALM      29.67F
GLENDIVE       MOCLDY    79  46  31 NE9       29.73S
MILES CITY     CLOUDY    80  50  34 SW8       29.75R THUNDER
BAKER          MOCLDY    82  52  35 E7        29.75F
$$

CITY           SKY/WX    TMP DP  RH WIND       PRES   REMARKS
BILLINGS       MOCLDY    82  47  29 E9        29.73F
GREAT FALLS    CLOUDY    65  38  36 W23G36    29.79R
REGINA         PTCLDY    68  59  73 SE9       29.66S
ESTEVAN        MOCLDY    75  50  41 NE2       29.68F
$$



USA.gov is the U.S. government's official web portal to all federal, state and local government web resources and services.